This is the latest recevied weather packets stored in our database for station/object WD9EKA. If no packets are shown the sender has not sent any weather packets the latest 10 day(s).
| Time | Temp. | Humidity | Pressure | Rain* | Wind** | Luminosity | Snow |
|---|---|---|---|---|---|---|---|
| 1787518469 | 26.67° C | 56% | 1011.3 hPa | 0 mm | - | - | - |
| 1787518149 | 26.11° C | 56% | 1011.1 hPa | 0 mm | - | - | - |
| 1787517829 | 26.11° C | 55% | 1011.1 hPa | 0 mm | - | - | - |
| 1787517509 | 26.67° C | 56% | 1011.1 hPa | 0 mm | - | - | - |
| 1787517189 | 26.67° C | 51% | 1011.2 hPa | 0 mm | - | - | - |
| 1787516869 | 26.11° C | 51% | 1011.1 hPa | 0 mm | - | - | - |
| 1787516549 | 26.67° C | 51% | 1011 hPa | 0 mm | - | - | - |
| 1787516229 | 26.11° C | 54% | 1011.3 hPa | 0 mm | - | - | - |
| 1787515909 | 26.67° C | 52% | 1011.1 hPa | 0 mm | - | - | - |
| 1787515589 | 26.11° C | 53% | 1011.3 hPa | 0 mm | - | - | - |
| 1787515269 | 26.11° C | 52% | 1011.7 hPa | 0 mm | - | - | - |
| 1787514949 | 26.11° C | 51% | 1011.4 hPa | 0 mm | - | - | - |
| 1787514629 | 26.67° C | 53% | 1011.3 hPa | 0 mm | - | - | - |
| 1787514309 | 26.11° C | 50% | 1011.3 hPa | 0 mm | - | - | - |
| 1787513989 | 26.11° C | 55% | 1011.3 hPa | 0 mm | - | - | - |
| 1787513669 | 26.11° C | 50% | 1011.5 hPa | 0 mm | - | - | - |
| 1787513029 | 26.11° C | 50% | 1011.5 hPa | 0 mm | - | - | - |
| 1787512709 | 26.11° C | 58% | 1011.7 hPa | 0 mm | - | - | - |
| 1787512389 | 26.11° C | 54% | 1011.8 hPa | 0 mm | - | - | - |
| 1787512069 | 25.56° C | 54% | 1012 hPa | 0 mm | - | - | - |
| 1787511749 | 26.11° C | 56% | 1011.6 hPa | 0 mm | - | - | - |
| 1787511109 | 25.56° C | 55% | 1012 hPa | 0 mm | - | - | - |
| 1787510789 | 26.11° C | 58% | 1012.1 hPa | 0 mm | - | - | - |
| 1787510469 | 25.56° C | 56% | 1012.1 hPa | 0 mm | - | - | - |
| 1787510149 | 26.11° C | 56% | 1012.1 hPa | 0 mm | - | - | - |
* Rain latest hour (hover to see other rain measurements)
** Current wind speed in m/s (hover to see current wind gust speed)